BREEZE-M DEB, 41317

Orbit data source: Space-Track

BREEZE-M DEB, 41317 is space debris in HEO originally from a launch on Thu, 17 May 2012 UTC launched from the Tyuratam Missile And Space Complex (TTMTR). Debris objects in space refer to the collection of defunct objects orbiting the Earth. Examples of debris include non-operational satellites, rocket bodies, and fragments generated from explosions, collisions, or faulty payload assembly.

Loading next visibility...
Identifier
41317, 2012-026D
Orbit
HEO
Country
Flag of CISCIS
Related business
Manufacturer
Khrunichev
Mission
Spacecraft
Bus & Motor
Unknown
Mass
Unknown
Launch date (UTC)
2012-05-17 (14 years ago)
Launch vehicle
Unknown
Launch site
Tyuratam Missile And Space Complex (TTMTR)
Object type
Payload
Rocket body
Debris
Shape & HBR
Unknown shape, 1.1 m
Radar Cross Section
Medium (>0.1 m² and <1 m²)

Expand to show TLE details & history
Last TLE update: 23 hours ago

TLE from 23 hours ago
0 BREEZE-M DEB
1 41317U 12026D   25354.03247754 -.00000037  00000-0  00000-0 0  9999
2 41317  10.1783 143.3575 4087529  34.7708 346.0944  1.79269854 65372
Epoch: 2025-12-20T00:46Z
TLE epoch observation values (Epoch: 2025-12-20T00:46:46.059Z)
Latitude
0.00001°
Longitude
42.6723°
Altitude
11,506.632 km
Speed
5.536 km/s
True Right ascension
09h 32m 55s
True Declination
0° 00' 00"
Sunlit
Object was in daylight at epoch
Visualization orbit readout
Latitude
Unknown
Longitude
Unknown
Altitude
Unknown
Speed
Unknown
Apparent Right ascension
Unknown
Apparent Declination
Unknown
Sunlit
N/A
Visualization observer readout
Local Sidereal Time
22:21:10
Azimuth
Unknown
Elevation
Unknown
Doppler factor
Unknown
Orbital elements
Apogee altitude
33,948.749 km
Perigee altitude
10,546.871 km
Semi-major axis
28,625.947 km
Eccentricity
0.40875
Inclination
10.1783°
RAAN
143.3575°
Arg. of periapsis
34.7708°
True anomaly
324.99809°
Mean anomaly
346.0944°
Eccentric anomaly
336.90951°
Mean motion
0.44813 °/min
Orbital period
803.34 mins
BSTAR
0
Loading maneuver chart data...
Computing Atmospheric mass density...
Loading historical data...
Loading historical data...
Loading historical data...
Loading historical data...
Loading historical data...
Loading historical data...
Loading historical data...

Documentation

Showing up to 5 results
|